STARLINK-3843, 52341

Orbit data source: Space-Track

STARLINK-3843, 52341 is a payload satellite owned by SpaceX/Seattle (US) in LEO that was launched on Fri, 29 Apr 2022 UTC via an FALCON 9 launch vehicle from the Air Force Eastern Test Range (AFETR). Payload-class satellites include a variety of spacecraft equipped with specific instruments for various scientific and technological missions. These include communications satellites like Starlink; space stations such as the ISS; scientific satellites like the Hubble; Earth observation satellites from companies like Planet Labs, Umbra, and HawkEye 360; GPS; miniature CubeSats for education and research; and military/defense satellites.

Loading next visibility...
Identifier
52341, 2022-045L
Orbit
LEO
Country
Flag of USUS
Related business
Manufacturer
SpaceX/Seattle
Mission
Operational Commercial Communications
Bus & Motor
STARLINK, Unknown motor
Mass
297 kg wet, ~275 kg dry
Launch date (UTC)
2022-04-29 (4 years ago)
Launch vehicle
FALCON 9
Launch site
Air Force Eastern Test Range (AFETR)
Object type
Payload
Rocket body
Debris
Shape & HBR
Box + 1 Pan, 10.1 m
Radar Cross Section
11.087 m², Large (>1 m²)

Expand to show TLE details & history
Last TLE update: 9 hours ago

TLE from 9 hours ago
0 STARLINK-3843
1 52341U 22045L   26119.89525411 -.00000388  00000-0 -62924-5 0  9991
2 52341  53.2184 339.2012 0001439  86.1967 273.9190 15.08841128223370
Epoch: 2026-04-29T21:29Z
TLE epoch observation values (Epoch: 2026-04-29T21:29:09.955Z)
Latitude
0.00002°
Longitude
159.06008°
Altitude
540.57 km
Speed
7.593 km/s
True Right ascension
22h 36m 48s
True Declination
0° 00' 00"
Sunlit
Object was in daylight at epoch
Visualization orbit readout
Latitude
Unknown
Longitude
Unknown
Altitude
Unknown
Speed
Unknown
Apparent Right ascension
Unknown
Apparent Declination
Unknown
Sunlit
N/A
Visualization observer readout
Local Sidereal Time
13:39:25
Azimuth
Unknown
Elevation
Unknown
Doppler factor
Unknown
Orbital elements
Apogee altitude
540.98 km
Perigee altitude
538.989 km
Semi-major axis
6,918.122 km
Eccentricity
0.00014
Inclination
53.2184°
RAAN
339.2012°
Arg. of periapsis
86.1967°
True anomaly
273.90255°
Mean anomaly
273.919°
Eccentric anomaly
273.91077°
Mean motion
3.77191 °/min
Orbital period
95.44 mins
BSTAR
-0.0000062924
Loading maneuver chart data...
Computing Atmospheric mass density...
Loading historical data...
Loading historical data...
Loading historical data...
Loading historical data...
Loading historical data...
Loading historical data...
Loading historical data...

Documentation

Showing up to 5 results
|